Regional Weather Roundup
Issued by NWS

Home | Current Version | Previous Version | Text Only | Print | Product List | Glossary Off
Versions: 1 2 3 4 5 6 7 8 9 10 11 12 13 14 15 16 17 18 19 20 21 22 23 24 25 26 27 28 29 30 31 32 33 34 35 36 37 38 39 40 41 42 43 44 45 46 47 48 49 50

000
ASUS43 KFSD 081810
RWRSD

WEATHER ROUNDUP FOR SOUTH DAKOTA
NATIONAL WEATHER SERVICE SIOUX FALLS SD
1200 PM CST MON FEB 08 2016

NOTE: "FAIR" INDICATES FEW OR NO CLOUDS BELOW 12,000 FEET WITH NO
SIGNIFICANT WEATHER AND/OR OBSTRUCTIONS TO VISIBILITY.


SDZ001>005-009-010-012>017-081900-
NORTHWEST AND NORTH CENTRAL SOUTH DAKOTA

CITY           SKY/WX    TMP DP  RH WIND       PRES   REMARKS
BUFFALO          N/A     34  10  37 NW21      30.27F WCI  22
FAITH            N/A     33  13  43 NW23G31   30.30F WCI  21
MOBRIDGE       CLOUDY    35  18  49 NW24      30.24F WCI  23
$$

SDZ012>016-024>037-041>051-057-063-072>074-081900-
SOUTHWEST AND SOUTH CENTRAL SOUTH DAKOTA

CITY           SKY/WX    TMP DP  RH WIND       PRES   REMARKS
RAPID CTY ARPT MOSUNNY   40   5  23 NW32G43   30.32F
PIERRE         PTSUNNY   33  18  53 NW24G35   30.28F WCI  20
CUSTER         CLOUDY    32   6  33 NW15G26   30.28R WCI  22
ELLSWORTH AFB  PTSUNNY   38   6  26 NW29G39   30.31
PHILIP         CLOUDY    34  17  50 NW21      30.33F WCI  22
PINE RIDGE     CLOUDY    35  11  36 NW13      30.37S WCI  26
SPEARFISH      FAIR      32   7  34 W16       30.36F WCI  21
WINNER         FAIR      33  17  51 NW25G36   30.28F WCI  20
$$

SDZ004>011-016>023-039-040-081900-
NORTHEAST SOUTH DAKOTA

CITY           SKY/WX    TMP DP  RH WIND       PRES   REMARKS
ABERDEEN       PTSUNNY   30  13  49 N23G33    30.20F WCI  17
WATERTOWN      LGT SNOW  19  11  70 N28G37    30.10S WCI   1
BROOKINGS      FLURRIES  19  11  70 N30G37    30.06F WCI   0
SISSETON         N/A     18  12  77 N25G36    30.15R WCI   0
$$

SDZ017-020-022-023-036>040-048>070-081900-
SOUTHEAST SOUTH DAKOTA

CITY           SKY/WX    TMP DP  RH WIND       PRES   REMARKS
SIOUX FALLS    PTSUNNY   23  13  65 N32G39    30.11S WCI   5
HURON          MOSUNNY   28  18  66 N17G29    30.18F WCI  16
CHAMBERLAIN    SUNNY     32  19  58 NW23G38   30.24F WCI  19
MITCHELL       MOSUNNY   30  19  63 N24G32    30.20F WCI  16
YANKTON        CLOUDY    28  18  64 NW26G32   30.17F WCI  13
$$

ABBREVIATIONS USED IN REMARKS
   TC - TEMPERATURE IN CELSIUS
  WCI - WIND CHILL INDEX
   HX - HEAT INDEX
  VSB - VISIBILITY




USA.gov is the U.S. government's official web portal to all federal, state and local government web resources and services.